sat.trackr.live / text

‹ back to catalog

STARLINK-5012

NORAD 53918 · 2022-119AJ

PAYLOAD ACTIVE UNKNOWN

§ Identity

Operator
Country
US
Launch date
2022-09-24
Launch site
AFETR
Launch vehicle
Mass (kg)
RCS (m²)

Purposes: comms

External: N2YO · Heavens-Above · Gunter

§ Orbital elements

Epoch: 2026-09-20T05:16:39.792864Z

Period
95.44 min
Inclination
53.1611°
Eccentricity
0.0001538
Mean motion
15.08832817 rev/d
Perigee alt
538.7 km
Apogee alt
540.8 km
Semi-major
6,917.9 km
B*
5.5868e-5
RAAN
160.0864°
Arg perigee
88.7367°
Mean anomaly
271.3800°
Rev number
22,119

§ Raw data

STARLINK-50121 53918U 22119AJ  26263.21990501  .00000601  00000+0  55868-4 0  99992 53918  53.1611 160.0864 0001538  88.7367 271.3800 15.08832817221195

JSON: /api/v1/satellites/53918 · /tle

For live sub-satellite position, see the globe view (requires WebGL).

§ Visibility from observer

Set your observer location to see the next 7 days of passes ≥ 10°. The values pass through the URL so the page stays shareable.

No JS? Fill the form by hand. The geolocation button needs JavaScript.